Tracking 28518 objects as of 1-Mar-2024
HD Live streaming from Space Station
objects crossing your sky now

COSMOS 994

Track COSMOS 994 now!
10-day predictions
COSMOS 994 is classified as:


NORAD ID: 10731
Int'l Code: 1978-028A
Perigee: 976.9 km
Apogee: 1,012.8 km
Inclination: 82.9 °
Period: 104.9 minutes
Semi major axis: 7365 km
RCS: 2.0708 m2 (large)
Launch date: March 15, 1978
Source: Commonwealth of Independent States (former USSR) (CIS)
Launch site: PLESETSK MISSILE AND SPACE COMPLEX (PKMTR)
Your satellite tracking list
Your tracking list is empty




NASA's NSSDC Master Catalog

Two Line Element Set (TLE):
1 10731U 78028A   24061.13343701  .00000052  00000-0  39323-4 0  9993
2 10731  82.9278 274.9073 0024363  77.9926  37.4043 13.73308626303051
Source of the keplerian elements: AFSPC